Theta_e
306 305 306 306 307 307 307 309 305 308 308 320 330 327 323 324 328 330 331 332 335 336 337 338 340 344 348 347 347 345 348 352 354 356 355 355 351 348 350 349 347 343 341 339
306 307 306 305 307 307 308 308 308 309 311 322 325 323 321 322 325 325 327 329 331 332 333 335 340 341 346 347 347 345 345 343 346 347 349 349 349 348 348 346 343 342 340 340
301 305 305 302 308 310 311 314 312 309 316 322 320 319 319 320 321 321 323 326 328 329 330 332 334 341 342 346 347 344 344 342 343 343 342 345 346 344 342 342 341 341 340 339
303 304 296 307 318 316 314 316 318 317 319 322 320 319 320 321 322 323 325 326 326 325 327 330 333 334 337 343 345 343 342 339 342 341 339 338 338 340 340 338 339 340 341 340
301 300 304 309 315 315 314 313 320 320 321 322 324 324 323 325 324 326 326 325 325 326 327 328 328 329 330 333 340 342 341 340 339 339 337 334 334 335 338 338 340 339 338 333
300 298 295 306 316 320 318 309 320 319 319 318 320 316 320 323 324 324 324 325 326 326 327 328 329 328 327 327 329 334 340 341 343 340 338 337 338 338 339 338 337 336 329 329
303 300 303 310 317 319 307 309 321 320 319 319 318 318 322 324 325 324 325 326 327 326 325 327 329 328 325 326 325 329 334 341 340 342 338 335 335 336 336 335 335 330 326 328
301 299 298 314 315 312 318 323 322 321 321 321 322 322 323 325 323 324 325 325 325 325 326 327 328 326 324 323 326 327 329 334 340 339 338 335 336 334 334 331 325 322 322 323
308 309 313 315 315 319 322 322 323 324 323 324 322 322 323 323 322 324 323 324 326 325 323 323 324 323 320 322 323 324 326 330 335 338 337 337 334 329 327 326 321 320 318 320
309 311 312 314 317 319 321 320 321 321 319 319 319 322 323 321 323 321 325 324 322 323 321 319 320 320 319 321 326 323 321 327 332 331 332 331 329 328 325 325 322 322 320 321
309 311 312 314 316 318 318 319 319 322 322 323 323 323 321 322 322 323 325 321 323 322 319 319 321 319 321 325 326 322 321 326 319 313 311 310 311 318 320 322 323 323 321 322
309 315 315 315 317 319 319 319 321 322 324 324 323 322 322 323 321 323 324 323 319 322 320 321 320 318 319 319 320 317 314 312 312 312 312 313 314 312 307 308 308 308 310 319
314 316 316 318 319 321 320 322 324 325 324 322 323 323 322 322 322 321 324 321 319 320 320 321 320 316 319 319 317 314 312 311 310 311 314 313 313 316 312 309 303 303 302 301
315 317 315 317 317 321 322 323 323 325 326 324 322 322 322 322 321 324 322 323 323 321 321 321 320 319 318 318 319 317 315 312 314 313 313 311 312 311 317 317 317 313 303 304
315 317 319 320 319 321 323 325 322 321 321 321 321 321 322 320 321 324 324 325 323 321 320 321 321 321 323 321 319 318 317 318 317 316 315 314 316 314 313 316 315 314 313 307
316 315 317 317 318 320 322 322 320 319 319 319 320 320 321 323 324 324 326 323 321 320 322 322 322 323 323 323 321 319 319 316 317 319 317 316 315 313 313 315 315 314 315 316
314 314 315 315 317 319 320 321 321 319 320 319 319 320 323 324 326 324 324 325 324 324 326 325 323 325 324 323 321 319 318 319 318 317 316 314 315 315 315 315 314 314 316 316
318 319 319 318 319 319 319 319 319 320 320 319 320 322 323 321 323 325 325 326 325 325 324 324 324 322 320 320 320 317 316 316 314 314 315 317 317 318 318 316 316 316 318 317
316 316 316 316 317 318 319 319 320 320 320 320 320 322 324 324 324 326 327 325 324 321 322 324 320 320 318 320 321 318 317 317 317 318 316 312 316 318 318 318 317 317 318 317
315 316 317 317 317 317 318 320 320 319 320 320 321 321 320 324 325 325 326 325 325 322 325 324 324 321 321 319 319 318 318 318 317 316 316 316 316 316 317 308 315 317 317 317
315 316 317 317 317 318 319 320 320 319 320 318 319 320 321 320 321 321 322 323 323 322 324 320 322 321 321 318 319 317 317 317 317 318 317 317 316 317 318 318 318 318 318 319
317 317 317 317 317 318 318 319 319 319 318 317 319 321 320 319 320 323 320 317 319 311 322 322 321 319 321 314 318 318 318 318 317 319 318 318 318 317 317 317 317 318 319 320
316 316 316 317 316 317 317 318 318 317 317 318 317 318 318 319 322 320 315 321 322 315 320 319 314 312 313 318 317 317 318 318 318 318 318 319 318 318 318 318 319 319 319 320
314 314 313 314 314 315 314 316 318 318 320 319 319 320 321 320 318 322 322 315 312 311 317 317 315 310 310 319 317 318 317 317 317 318 318 307 318 320 319 319 320 320 321 318
313 313 314 314 313 312 311 316 317 316 320 320 321 323 323 321 316 318 321 322 311 314 315 307 308 309 319 320 319 319 319 318 318 319 319 319 316 319 320 320 321 319 321 322
314 313 313 313 313 314 314 315 314 316 319 318 318 319 322 320 319 317 320 317 321 314 317 317 318 318 319 320 319 319 320 320 319 319 316 318 320 321 320 318 321 321 322 322
315 306 315 316 316 319 320 319 319 318 317 318 318 319 321 320 319 317 314 320 319 320 320 320 320 316 320 321 320 321 321 321 313 320 321 321 321 321 320 320 320 322 322 324
Wind_Speed
3 3 3 3 5 8 10 9 10 9 10 13 10 7 4 3 5 6 8 10 11 13 14 16 16 16 15 13 12 10 10 9 8 8 8 9 11 11 12 11 10 11 13 13
3 0 1 6 9 10 12 6 9 5 7 6 7 7 5 5 6 9 9 10 11 13 14 15 16 15 14 11 11 8 8 7 5 5 8 11 11 13 14 13 10 8 4 5
7 2 4 10 10 10 5 4 6 10 4 13 10 8 6 6 6 8 9 8 8 8 9 10 11 11 11 11 10 10 9 7 5 6 7 10 10 11 12 11 9 9 10 12
5 2 12 3 6 8 9 4 7 4 5 9 9 7 5 4 6 9 8 9 8 7 7 7 8 9 11 10 9 8 9 8 7 8 8 5 6 8 10 8 11 10 10 9
5 9 8 7 5 7 10 9 7 7 8 8 6 4 2 2 5 7 7 6 7 7 7 7 8 10 11 11 11 12 11 9 9 9 9 7 7 9 9 9 10 7 6 4
4 8 13 9 9 5 2 10 13 9 9 9 6 4 2 3 6 7 7 7 7 7 7 8 9 11 13 14 13 13 15 13 11 11 10 10 12 12 10 8 8 8 8 7
10 9 9 4 8 6 10 5 16 12 9 7 3 1 4 3 6 6 6 8 8 10 11 12 13 14 15 15 15 16 15 16 14 14 12 10 8 9 10 9 10 11 10 8
3 6 13 3 8 10 3 11 13 10 7 6 4 2 2 5 6 9 11 12 12 11 12 14 14 15 17 19 18 16 16 15 16 15 11 8 12 9 10 10 12 11 10 10
6 1 4 5 7 4 6 10 8 8 6 7 5 3 5 6 8 7 8 9 11 11 13 14 15 17 20 21 19 18 18 16 12 13 11 10 11 11 9 10 10 8 9 10
5 5 1 2 3 3 5 6 5 4 1 2 5 2 6 5 5 5 8 9 9 10 13 15 16 16 17 20 20 14 14 15 10 10 6 5 4 7 8 9 11 10 8 9
2 3 2 5 6 8 5 4 3 3 2 2 3 5 4 3 3 5 6 6 7 9 11 13 15 16 18 15 9 6 6 5 9 12 11 9 8 2 8 4 11 10 8 10
6 12 8 12 11 8 7 4 2 4 4 4 4 5 2 3 4 3 2 4 6 8 9 12 16 15 19 18 16 17 14 14 12 8 9 7 8 8 21 13 15 12 9 9
2 8 5 9 10 8 6 5 4 4 3 4 5 4 3 1 3 3 3 4 3 5 6 9 12 13 14 16 17 20 15 14 12 12 9 10 9 7 8 9 16 14 12 11
4 10 5 9 7 9 5 5 6 5 5 5 4 3 3 3 5 5 4 4 3 4 6 8 10 12 10 10 14 15 12 11 9 9 8 12 6 3 1 4 9 7 8 7
12 5 5 8 4 7 5 5 4 2 3 4 3 4 4 5 7 7 6 6 7 5 4 5 8 8 9 9 10 10 7 6 6 6 7 7 4 2 2 3 6 6 6 5
10 2 8 8 7 6 5 5 4 2 1 3 5 6 6 7 7 9 8 9 9 7 5 2 2 3 4 5 6 5 6 10 6 6 4 3 1 1 4 2 3 4 4 4
10 6 5 5 6 7 8 6 5 2 1 4 6 7 8 8 9 10 10 10 8 7 6 5 6 6 6 5 4 2 1 2 2 2 2 3 5 6 4 3 3 4 4 4
1 2 5 2 6 7 7 6 5 3 2 4 7 8 8 8 9 9 10 10 8 7 6 5 5 4 4 5 6 4 4 4 4 4 3 4 4 3 4 4 4 4 3 4
4 3 1 3 4 4 5 5 4 2 2 4 7 8 6 7 8 9 10 10 9 8 7 6 6 4 2 3 4 5 4 4 4 4 3 3 3 3 4 4 4 3 3 3
4 4 3 2 0 4 5 4 4 3 3 4 6 6 6 7 7 8 10 11 9 5 8 8 6 6 4 5 4 5 4 4 4 4 2 2 2 2 3 2 2 3 4 3
4 4 4 3 3 1 3 3 3 4 3 4 5 5 4 2 5 7 8 6 5 3 6 7 6 5 3 3 3 4 5 4 4 3 3 2 3 3 3 3 4 4 4 5
3 4 4 4 4 4 2 2 3 3 4 4 4 4 4 5 7 7 2 3 3 5 5 5 4 5 3 4 3 3 3 3 2 2 2 3 3 4 5 4 4 3 4 3
3 4 4 4 4 4 3 2 3 3 4 3 3 5 5 5 6 8 4 2 2 6 5 4 4 4 8 4 3 3 3 3 2 3 3 3 4 4 4 4 4 4 5 5
3 3 4 4 4 4 4 2 2 2 2 1 3 6 7 6 3 2 4 6 5 6 3 4 5 8 9 4 3 3 3 4 4 4 4 5 5 5 6 6 7 7 6 5
0 1 3 4 4 3 3 2 0 1 5 6 6 5 6 3 3 2 3 4 4 7 5 5 4 8 6 5 5 5 4 5 5 5 6 6 5 6 6 5 6 4 5 3
1 1 2 3 3 3 1 2 3 4 5 5 3 3 4 5 1 2 4 3 5 5 5 5 4 5 4 4 5 6 6 7 7 7 6 5 7 6 5 6 6 5 4 3
1 1 1 2 1 2 3 5 7 7 5 4 5 4 1 5 7 6 4 5 5 6 4 4 4 5 4 5 6 6 5 5 5 5 4 5 5 5 5 5 4 3 2 2
Wind_Direction
269 238 239 262 222 192 211 233 229 259 217 189 182 161 115 56 57 62 34 25 19 11 3 0 1 359 359 360 359 357 335 324 287 264 228 207 191 165 154 157 172 177 180 198
263 335 328 276 260 250 234 228 246 241 218 165 140 134 125 76 68 65 55 39 23 14 5 359 356 351 345 339 332 329 323 315 276 219 197 195 182 172 169 173 170 184 198 179
262 3 314 264 264 236 223 218 225 196 216 165 163 147 119 95 80 68 61 50 35 21 360 348 343 338 328 324 321 314 313 298 244 213 204 189 174 164 166 173 170 186 187 178
269 230 254 350 324 248 250 234 223 247 180 166 134 118 115 88 46 44 32 26 18 3 347 341 335 332 322 309 287 281 287 284 241 201 191 194 179 177 169 183 194 195 193 200
239 248 296 259 202 190 202 222 194 189 156 156 134 157 183 123 56 47 37 16 3 351 341 345 351 346 336 321 295 278 261 237 226 203 192 181 186 198 203 191 192 195 155 169
168 250 263 287 222 202 173 247 183 174 151 139 158 189 108 81 53 49 20 14 359 350 334 328 331 323 312 305 297 281 276 260 221 199 202 201 205 204 202 193 179 141 136 160
255 257 261 213 146 148 206 262 158 159 145 138 134 59 76 22 60 25 14 6 356 345 333 327 323 318 301 296 284 281 279 263 243 214 205 202 196 195 178 160 149 143 132 137
212 244 252 148 132 208 65 131 137 142 152 193 235 305 327 57 32 23 7 357 351 344 341 338 327 313 303 298 294 286 270 263 236 229 212 187 188 174 166 150 142 135 128 115
229 287 350 295 295 124 142 134 146 163 189 220 241 250 41 36 23 10 359 358 5 352 336 328 325 322 303 291 288 276 267 255 228 218 205 189 177 163 154 146 129 125 123 119
196 178 17 89 108 122 135 128 167 212 307 311 300 66 70 59 26 2 22 19 348 346 348 340 327 317 298 287 281 263 237 239 211 193 163 148 170 166 149 139 136 135 122 127
217 233 195 228 212 185 181 162 132 88 72 86 78 70 80 66 35 27 36 9 5 360 1 342 345 336 336 337 338 294 213 196 69 74 74 64 43 320 108 112 127 133 132 141
218 187 196 187 184 185 188 181 160 136 122 85 83 109 114 53 62 56 31 38 15 11 9 8 13 8 14 25 44 62 71 79 76 81 78 67 65 24 38 69 81 89 97 124
298 190 190 162 169 181 190 168 131 139 104 102 95 66 32 53 167 191 141 88 28 17 17 30 26 35 33 40 54 60 67 74 81 71 84 69 53 12 43 51 72 74 83 82
221 150 135 177 186 184 177 135 125 103 85 60 41 5 317 229 188 197 149 138 160 76 52 52 44 37 6 47 60 68 73 47 93 98 84 86 55 334 145 140 113 96 54 78
184 216 233 167 155 169 156 149 148 117 40 13 24 317 297 232 213 203 185 164 157 132 88 62 62 49 36 26 63 75 51 50 57 70 75 91 130 157 12 119 122 114 119 102
173 156 154 170 183 179 188 185 205 207 357 342 317 309 297 257 229 199 186 169 166 167 165 141 114 109 66 38 35 61 82 82 79 101 121 138 160 201 209 190 152 136 165 166
156 143 156 200 203 206 212 226 232 210 301 315 314 304 283 248 216 198 191 180 186 196 213 218 223 224 242 251 268 265 198 161 162 184 172 190 190 191 181 177 161 170 169 144
37 196 201 232 224 218 221 224 215 201 268 313 306 295 276 230 217 199 190 177 189 198 202 206 199 190 224 233 214 198 221 202 164 171 186 188 170 181 184 191 184 168 157 120
95 100 20 283 265 243 238 225 197 159 267 300 302 302 285 243 224 203 178 178 183 183 184 197 175 170 153 147 163 158 161 154 148 136 105 119 125 122 121 119 114 129 161 179
77 61 42 359 185 227 228 181 160 198 255 295 301 291 270 244 217 201 194 188 182 178 160 172 171 146 130 113 143 123 121 127 132 123 101 85 84 109 120 107 155 166 162 176
53 25 359 341 320 249 228 186 201 237 269 289 288 283 273 189 165 179 187 177 164 183 183 152 162 143 141 124 149 130 143 137 135 159 174 161 158 171 180 181 194 201 213 216
24 2 344 334 315 295 258 246 234 245 268 281 269 226 164 142 142 145 81 172 180 180 172 179 171 158 167 180 134 146 143 148 145 155 174 197 216 217 218 216 228 234 246 257
28 1 344 344 329 319 301 263 225 244 268 289 245 199 177 155 160 156 125 275 195 186 182 183 139 165 170 188 157 167 192 192 202 219 227 236 248 248 242 237 246 255 256 258
49 29 5 341 322 302 277 202 239 273 273 159 151 144 145 130 103 69 165 166 174 166 191 173 194 191 193 189 203 226 219 226 240 255 264 254 257 265 260 254 241 235 240 240
64 350 353 0 356 353 315 286 222 148 139 133 124 133 126 80 109 171 136 179 160 208 179 178 211 171 204 213 228 240 249 249 249 257 262 262 251 263 243 247 247 237 251 257
240 5 358 353 339 313 248 157 140 137 147 147 120 185 126 107 89 268 235 200 184 206 192 174 189 195 217 229 245 255 259 258 242 241 259 269 265 264 247 241 245 228 221 217
173 336 55 96 51 46 97 120 140 141 167 191 196 205 108 154 200 231 243 181 193 204 207 212 213 209 227 230 226 239 273 275 255 265 260 266 269 271 263 245 231 208 174 161